Location: Dammartin
(48.9032°N, 1.6195°E)
Time: 11:21:51
(UTC+00:00)

Lacrosse 5 - Pass Details

Date: 03 February 2023
Orbit: 714 x 724 km, 57.0° (Epoch: 09 March)

Event Time Altitude Azimuth Distance (km) Brightness Sun altitude
Rises 20:08:59 0° 265° (W) 3,136 6.2 -32.1°
Reaches altitude 10° 20:11:30 10° 273° (W) 2,217 5.2 -32.5°
Enters shadow 20:15:03 35° 308° (NW) 1,174 3.3 -33.1°
